Time,TemperatureF,DewpointF,PressureIn,WindDirection,WindDirectionDegrees,WindSpeedMPH,WindSpeedGustMPH,Humidity,HourlyPrecipIn,Conditions,Clouds,dailyrainin,SolarRadiationWatts/m^2,SoftwareType,DateUTC
2013-08-31 00:01:00,62.0,54.0,-100.00,WNW,302,3.0,6.0,75,0.00,,,0.14,0.000000,,2013-08-31 07:01:00,
2013-08-31 00:42:00,62.0,54.0,-100.00,WNW,300,2.0,5.0,76,0.00,,,0.09,0.000000,,2013-08-31 07:42:00,
2013-08-31 00:52:00,62.0,54.0,-100.00,WNW,300,2.0,5.0,76,0.00,,,0.09,0.000000,,2013-08-31 07:52:00,
2013-08-31 01:03:00,62.0,54.0,-100.00,WNW,300,2.0,5.0,76,0.00,,,0.09,0.000000,,2013-08-31 08:03:00,
2013-08-31 01:42:00,63.0,55.0,-100.00,NW,314,0.0,4.0,76,0.00,,,0.06,0.000000,,2013-08-31 08:42:00,
2013-08-31 01:52:00,63.0,55.0,-100.00,NW,314,0.0,4.0,76,0.00,,,0.06,0.000000,,2013-08-31 08:52:00,
2013-08-31 02:02:00,63.0,55.0,-100.00,NW,314,0.0,4.0,76,0.00,,,0.06,0.000000,,2013-08-31 09:02:00,
2013-08-31 02:44:00,62.0,55.0,-100.00,NE,39,2.0,2.0,77,0.00,,,0.05,0.000000,,2013-08-31 09:44:00,
2013-08-31 02:53:00,62.0,55.0,-100.00,NE,39,2.0,2.0,77,0.00,,,0.05,0.000000,,2013-08-31 09:53:00,
2013-08-31 03:03:00,62.0,55.0,-100.00,NE,39,2.0,2.0,77,0.00,,,0.05,0.000000,,2013-08-31 10:03:00,
2013-08-31 03:43:00,62.0,54.0,-100.00,NNW,340,1.0,2.0,76,0.00,,,-99.99,0.000000,,2013-08-31 10:43:00,
2013-08-31 03:53:00,62.0,54.0,-100.00,NNW,340,1.0,2.0,76,0.00,,,-99.99,0.000000,,2013-08-31 10:53:00,
2013-08-31 04:02:00,62.0,54.0,-100.00,NNW,340,1.0,2.0,76,0.00,,,-99.99,0.000000,,2013-08-31 11:02:00,
2013-08-31 04:42:00,62.0,55.0,-100.00,NE,48,2.0,5.0,79,0.00,,,0.03,0.000000,,2013-08-31 11:42:00,
2013-08-31 04:52:00,62.0,55.0,-100.00,NE,48,2.0,5.0,79,0.00,,,0.03,0.000000,,2013-08-31 11:52:00,
2013-08-31 05:02:00,62.0,55.0,-100.00,NE,48,2.0,5.0,79,0.00,,,0.03,0.000000,,2013-08-31 12:02:00,
2013-08-31 05:42:00,60.0,55.0,-100.00,ENE,68,3.0,5.0,84,0.00,,,0.01,0.000000,,2013-08-31 12:42:00,
2013-08-31 05:52:00,60.0,55.0,-100.00,ENE,68,3.0,5.0,84,0.00,,,0.01,0.000000,,2013-08-31 12:52:00,
2013-08-31 06:01:00,60.0,55.0,-100.00,ENE,68,3.0,5.0,84,0.00,,,0.01,0.000000,,2013-08-31 13:01:00,
2013-08-31 06:42:00,60.0,56.0,-100.00,ESE,103,4.0,5.0,87,0.00,,,0.00,0.000000,,2013-08-31 13:42:00,
2013-08-31 06:52:00,60.0,56.0,-100.00,ESE,103,4.0,5.0,87,0.00,,,0.00,0.000000,,2013-08-31 13:52:00,
2013-08-31 07:01:00,60.0,56.0,-100.00,ESE,103,4.0,5.0,87,0.00,,,0.00,0.000000,,2013-08-31 14:01:00,
2013-08-31 07:42:00,58.0,55.0,-100.00,South,180,5.0,6.0,91,0.00,,,0.00,5.000000,,2013-08-31 14:42:00,
2013-08-31 07:52:00,58.0,55.0,-100.00,South,180,5.0,6.0,91,0.00,,,0.00,5.000000,,2013-08-31 14:52:00,
2013-08-31 08:01:00,58.0,55.0,-100.00,South,180,5.0,6.0,91,0.00,,,0.00,5.000000,,2013-08-31 15:01:00,
2013-08-31 08:55:00,63.0,57.0,-100.00,South,178,7.0,9.0,82,0.00,,,-99.99,112.000000,,2013-08-31 15:55:00,
2013-08-31 09:04:00,63.0,57.0,-100.00,South,178,7.0,9.0,82,0.00,,,-99.99,112.000000,,2013-08-31 16:04:00,
2013-08-31 09:52:00,68.0,59.0,-100.00,South,178,6.0,9.0,73,0.00,,,0.00,324.000000,,2013-08-31 16:52:00,
2013-08-31 10:02:00,68.0,59.0,-100.00,South,178,6.0,9.0,73,0.00,,,0.00,324.000000,,2013-08-31 17:02:00,
2013-08-31 12:42:00,76.0,61.0,-100.00,North,4,3.0,6.0,59,-99.99,,,0.00,844.000000,,2013-08-31 19:42:00,
2013-08-31 12:52:00,76.0,61.0,-100.00,North,4,3.0,6.0,59,-99.99,,,0.00,844.000000,,2013-08-31 19:52:00,
2013-08-31 13:02:00,76.0,61.0,-100.00,North,4,3.0,6.0,59,-99.99,,,0.00,844.000000,,2013-08-31 20:02:00,
2013-08-31 13:42:00,74.0,61.0,-100.00,NNW,345,4.0,8.0,65,0.00,,,0.00,903.000000,,2013-08-31 20:42:00,
2013-08-31 13:52:00,74.0,61.0,-100.00,NNW,345,4.0,8.0,65,0.00,,,0.00,903.000000,,2013-08-31 20:52:00,
2013-08-31 14:01:00,74.0,61.0,-100.00,NNW,345,4.0,8.0,65,0.00,,,0.00,903.000000,,2013-08-31 21:01:00,
2013-08-31 14:44:00,72.0,61.0,-100.00,NNW,348,4.0,10.0,68,0.00,,,0.00,911.000000,,2013-08-31 21:44:00,
2013-08-31 14:54:00,72.0,61.0,-100.00,NNW,348,4.0,10.0,68,0.00,,,0.00,911.000000,,2013-08-31 21:54:00,
2013-08-31 15:04:00,72.0,61.0,-100.00,NNW,348,4.0,10.0,68,0.00,,,0.00,911.000000,,2013-08-31 22:04:00,
2013-08-31 15:43:00,73.0,61.0,-100.00,NNW,348,4.0,12.0,67,0.00,,,0.00,572.000000,,2013-08-31 22:43:00,
2013-08-31 15:53:00,73.0,61.0,-100.00,NNW,348,4.0,12.0,67,0.00,,,0.00,572.000000,,2013-08-31 22:53:00,
2013-08-31 16:03:00,73.0,61.0,-100.00,NNW,348,4.0,12.0,67,0.00,,,0.00,572.000000,,2013-08-31 23:03:00,
2013-08-31 16:42:00,71.0,59.0,-100.00,NNW,345,4.0,9.0,66,0.00,,,0.00,645.000000,,2013-08-31 23:42:00,
2013-08-31 16:52:00,71.0,59.0,-100.00,NNW,345,4.0,9.0,66,0.00,,,0.00,645.000000,,2013-08-31 23:52:00,
2013-08-31 17:01:00,71.0,59.0,-100.00,NNW,345,4.0,9.0,66,0.00,,,0.00,645.000000,,2013-09-01 00:01:00,
2013-08-31 17:42:00,69.0,58.0,-100.00,NNW,338,3.0,9.0,69,0.00,,,-99.99,557.000000,,2013-09-01 00:42:00,
2013-08-31 17:52:00,69.0,58.0,-100.00,NNW,338,3.0,9.0,69,0.00,,,-99.99,557.000000,,2013-09-01 00:52:00,
2013-08-31 18:02:00,69.0,58.0,-100.00,NNW,338,3.0,9.0,69,0.00,,,-99.99,557.000000,,2013-09-01 01:02:00,
2013-08-31 18:42:00,63.0,57.0,-100.00,North,355,3.0,7.0,82,0.00,,,0.00,383.000000,,2013-09-01 01:42:00,
2013-08-31 18:52:00,63.0,57.0,-100.00,North,355,3.0,7.0,82,0.00,,,0.00,383.000000,,2013-09-01 01:52:00,
2013-08-31 19:02:00,63.0,57.0,-100.00,North,355,3.0,7.0,82,0.00,,,0.00,383.000000,,2013-09-01 02:02:00,
2013-08-31 19:43:00,60.0,56.0,-100.00,NW,307,4.0,8.0,86,0.00,,,0.00,64.000000,,2013-09-01 02:43:00,
2013-08-31 19:53:00,60.0,56.0,-100.00,NW,307,4.0,8.0,86,0.00,,,0.00,64.000000,,2013-09-01 02:53:00,
2013-08-31 20:02:00,60.0,56.0,-100.00,NW,307,4.0,8.0,86,0.00,,,0.00,64.000000,,2013-09-01 03:02:00,
2013-08-31 20:44:00,56.0,54.0,-100.00,NNW,335,2.0,9.0,94,0.00,,,0.00,9.000000,,2013-09-01 03:44:00,
2013-08-31 20:54:00,56.0,54.0,-100.00,NNW,335,2.0,9.0,94,0.00,,,0.00,9.000000,,2013-09-01 03:54:00,
2013-08-31 21:03:00,-999.0,-99.9,-100.00,NNW,335,2.0,9.0,-999,-99.99,,,-99.99,9.000000,,2013-09-01 04:03:00,
2013-08-31 21:43:00,56.0,55.0,-100.00,NW,324,3.0,6.0,95,0.00,,,0.00,0.000000,,2013-09-01 04:43:00,
2013-08-31 21:54:00,56.0,55.0,-100.00,NW,324,3.0,6.0,95,0.00,,,0.00,0.000000,,2013-09-01 04:54:00,
2013-08-31 22:03:00,56.0,55.0,-100.00,NW,324,3.0,6.0,95,0.00,,,0.00,0.000000,,2013-09-01 05:03:00,
2013-08-31 22:43:00,55.0,54.0,-100.00,NNW,332,1.0,6.0,96,0.00,,,0.00,0.000000,,2013-09-01 05:43:00,
2013-08-31 22:52:00,55.0,54.0,-100.00,NNW,332,1.0,6.0,96,0.00,,,0.00,0.000000,,2013-09-01 05:52:00,
2013-08-31 23:02:00,55.0,54.0,-100.00,NNW,332,1.0,6.0,96,0.00,,,0.00,0.000000,,2013-09-01 06:02:00,
2013-08-31 23:42:00,55.0,54.0,-100.00,NNW,330,2.0,7.0,96,0.00,,,0.00,0.000000,,2013-09-01 06:42:00,
2013-08-31 23:52:00,55.0,54.0,-100.00,NNW,330,2.0,7.0,96,0.00,,,0.00,0.000000,,2013-09-01 06:52:00,